Submittal Forms
Current Contests
Recent Contests

Club Activity Tracker - Yankee Clipper Contest Club (from club selection on form)

Recent postings for the selected club or group are listed below. Other than the call used, all calls listed are only those associated with the club or group. Click on a call to see the details of the posting.
Status Key: new=new posting, update=update prior posting, move=change club/group, delete=delete prior posting.

Sort by   for past

TimestampCallContestClassPowerScoreStatus
2021-05-14 03:07:18K8CNNCCC SprintSingle OpQRP528new6425
2021-05-14 03:04:14W1FJNCCC SprintSingle OpLP1,008new6425
2021-05-13 14:20:24K1RVCWopsTSingle OpHP625new6421
2021-05-13 14:18:14K1RVCWopsTSingle OpHP576new6420
2021-05-13 14:15:49K1RVCWopsTSingle OpHP3,363new6419
2021-05-13 04:14:46W1QKCWopsTSingle OpLP7,189new6421
2021-05-13 04:09:01K1VUTCWopsTSingle OpLP10,812new6421
2021-05-13 04:04:26N1DCCWopsTSingle OpLP6,156new6421
2021-05-13 03:30:04W1TOCWopsTSingle OpHP961new6421
2021-05-12 23:07:55W1GDCWopsTSingle OpLP1,089new6420
 
2021-05-12 22:02:03W1RMCWopsTSingle OpHP324new6420
2021-05-12 20:13:09K1EBYCWopsTSingle OpHP12,996new6420
2021-05-12 20:05:18W1QKCWopsTSingle OpLP6,083new6420
2021-05-12 20:05:02N1DCCWopsTSingle OpLP3,904new6420
2021-05-12 20:03:28K1VUTCWopsTSingle OpLP7,654new6420
2021-05-12 20:02:46K1DJCWopsTSingle OpQRP2,160new6420
2021-05-12 20:01:23K1IGCWopsTSingle OpLP961new6420
2021-05-12 19:32:37WS1LCWopsTSingle OpHP1,296new6420
2021-05-12 17:48:29W1GDCWopsTSingle OpLP625new6419
2021-05-12 15:00:31W1RMCWopsTSingle OpHP324new6419
 
2021-05-12 14:13:21K2LECWopsTSingle OpHP17,160new6419
2021-05-12 14:10:33W1QKCWopsTSingle OpLP5,920new6419
2021-05-12 14:07:27K1EBY(SELFK1EBY)CWopsTSingle OpHP7,656new6419
2021-05-12 14:03:55K1VUTCWopsTSingle OpLP3,422new6419
2021-05-12 14:03:02K1DJCWopsTSingle OpQRP1,404new6419
2021-05-12 14:02:56N1DCCWopsTSingle OpLP3,782new6419
2021-05-12 14:02:48WS1LCWopsTSingle OpHP5,625new6419
2021-05-12 14:02:08W1TOCWopsTSingle OpHP9,306new6419
2021-05-12 14:01:23K1IGCWopsTSingle OpLP441new6419
2021-05-11 15:45:30KX1WArQPSOMixedLP10new6413
 
2021-05-11 10:38:35W1ENDArQPSOCWLP456new6413
2021-05-11 10:19:11W1ENDNewEngQPSingle OpLP26,240new6397
2021-05-10 20:36:47N1SOHNewEngQPM/SHP83,640new6397
 (W1FM,@N1SOH)
2021-05-10 20:19:41W1FJCQ-MSOSB/20CWHP7,812new6412
2021-05-10 20:15:17N1SOHDeQPM/SHP1,250new6396
 (W1FM,@N1SOH)
2021-05-10 19:45:24N1SOHInQPM/SHP615new6395
 (W1FM,@N1SOH)
2021-05-10 18:59:07N1SOH7QPM/SHP1,824new6394
 (W1FM,@N1SOH)
2021-05-10 18:36:58W1FM50SprngSprntSingle OpHP16new6414
2021-05-10 03:23:36N2QVCQ-MSOABCWHP17,056new6412
2021-05-10 02:35:10N1SOHArQPM/SHP363new6413
 (W1FM,@N1SOH)
 
2021-05-10 02:18:07N1SOHCQ-MM/SHP2,664new6412
 (W1FM,@N1SOH)
2021-05-10 01:43:33N1SOHARIM/SHP528new6393
 (W1FM,@N1SOH)
2021-05-10 01:18:08KC1VKRC SSTAcademy Single OpLP228new6415
2021-05-09 23:02:22W1QKDeQPSingle OpLP40update6396
2021-05-09 21:50:37W1QKInQPSingle OpLP572new6395
2021-05-09 21:42:51W1QKNewEngQPSingle OpLP184,179new6397
2021-05-09 18:53:59W1ENDDeQPSingle OpLP30new6396
2021-05-09 18:51:17W1ENDInQPSingle OpLP384new6395
2021-05-09 18:48:02W1END7QPSOCWLP2,904new6394
2021-05-09 15:20:19K1KI50SprngSprntSingle OpLP80new6414
 
2021-05-09 14:52:35K2LECQ-MSOSB/20CWHP16,206new6412
2021-05-09 14:45:21K1ROArQPSOMixedHP3,706new6413
2021-05-09 14:35:44VA2EBICQ-MSOABMixedHP34,100new6412
2021-05-09 13:55:28K1XMCQ-MSOABCWLP87,963new6412
2021-05-09 13:50:08K1JBCQ-MSOSB/20CWHP26,402new6412
2021-05-09 12:47:23K1ZZCQ-MSOABCWHP841,104new6412
2021-05-09 12:40:47AE1PVolta RTTYSOAB-6HP45,961,600new6411
2021-05-09 12:04:43W1UE(@W1KM)CQ-MSOABCWHP315,114new6412
2021-05-09 00:43:10K1DJArQPSOCWHP112new6413
2021-05-07 22:35:06KX1WDeQPSingle OpLP1new6396
 
2021-05-07 22:10:57KX1WNewEngQPSingle OpLP1,120new6397
2021-05-07 22:09:14KX1W7QPSOMixedLP9new6394
2021-05-07 22:07:25KX1WInQPSingle OpLP9new6395
2021-05-07 22:01:26NE1QPNewEngQPM/SHP412,720new6397
 (NT2X,NE1QP,NJ1F,K1MK,W1TO,W3MLJ,@K1TTT)
2021-05-07 21:29:30N1IBQARISO SSBLP360new6393
2021-05-07 21:04:00W1WEFKRC SSTSingle OpHP460new6410
2021-05-07 19:18:49W1RMCWopsTSingle OpHP676new6403
2021-05-07 14:19:41K1RVCWopsTSingle OpHP841new6404
2021-05-07 03:06:13W1FJNCCC SprintSingle OpLP832new6409
2021-05-07 00:18:15N1IBQNewEngQPSingle OpLP4,257new6397
 
2021-05-06 20:43:44W1QKCWopsTSingle OpLP5,106update6404
2021-05-06 04:14:33K2LECWopsTSingle OpHP12,852new6404
2021-05-06 04:07:02K1VUTCWopsTSingle OpLP10,900new6404
2021-05-06 04:04:11N1DCCWopsTSingle OpLP5,106new6404
2021-05-06 04:03:51HP/VE1RM(VE1RM,@HP3SS)CWopsTSingle OpHP8,100new6404
2021-05-06 04:02:20N1SNBCWopsTSingle OpHP9,207new6404
2021-05-06 03:31:00W1TOCWopsTSingle OpHP1,369new6404
2021-05-05 23:28:56K1RVNewEngQPSingle OpHP45,018new6397
2021-05-05 23:10:36K1RVCWopsTSingle OpHP225new6403
2021-05-05 20:18:47W1QKCWopsTSingle OpLP7,830new6403
 
2021-05-05 20:15:52K1EBYCWopsTSingle OpHP5,476new6402
2021-05-05 20:13:16K1EBYCWopsTSingle OpHP16,641new6403
2021-05-05 20:06:00N1DCCWopsTSingle OpLP4,550new6403
2021-05-05 20:04:26AE1TCWopsTSingle OpHP4,489new6403
2021-05-05 20:03:42W1WEFCWopsTSingle OpHP18,084new6403
2021-05-05 20:03:37K1VUTCWopsTSingle OpLP8,928new6403
2021-05-05 20:02:05K1MTCWopsTSingle OpHP2,025new6403
2021-05-05 20:01:50K1DJCWopsTSingle OpQRP2,300new6403
2021-05-05 20:01:09W1TOCWopsTSingle OpHP9,025new6403
2021-05-05 19:19:38WS1LCWopsTSingle OpHP100new6403
 
2021-05-05 18:39:59W1RMCWopsTSingle OpHP256new6402
2021-05-05 17:57:49K1RVCWopsTSingle OpHP1,225new6402
2021-05-05 14:44:03W1QKCWopsTSingle OpLP5,846new6402
2021-05-05 14:06:11K1VUTCWopsTSingle OpLP9,500new6402
2021-05-05 14:02:55K1DJCWopsTSingle OpQRP3,024new6402
2021-05-05 14:02:50K1ARCWopsTSingle OpHP24,960new6402
2021-05-05 14:02:24K1MTCWopsTSingle OpHP841new6402
2021-05-05 14:01:54W1TOCWopsTSingle OpHP7,482new6402
2021-05-05 13:58:58K1IGCWopsTSingle OpLP625new6402
2021-05-05 01:06:44K2UA/MNewEngQPM/S MobileHP185,640new6397
 (N2MG,@K2UA)
 
2021-05-04 16:45:55WO1NNewEngQPSingle OpLP90,240new6397
2021-05-04 15:28:11W1W(@AB1J)NewEngQPSingle OpLP58,088new6397
2021-05-04 15:11:05W1KMNewEngQPSingle OpHP35,844new6397
2021-05-04 14:51:13W1HSNewEngQPSingle OpHP11,610new6397
2021-05-04 12:13:16K1RMNewEngQPSingle OpHP44,800new6397
2021-05-04 11:50:13NN1SSNewEngQPSingle OpHP130,690new6397
2021-05-04 01:02:08W1DYJNewEngQPSingle OpLP6,141new6397
2021-05-03 20:28:02NS1DXNewEngQPM/SHP329,725new6397
 (K2LE,W1VE,NS1DX,K1EP)
2021-05-03 19:12:56K1GQNewEngQPSingle OpHP261,800new6397
2021-05-03 18:08:30K1KIInQPSingle OpHP756new6395
 
2021-05-03 18:07:34K1KIDeQPSingle OpHP1,200new6396
2021-05-03 18:06:31K1KI7QPSO(A)CWHP37,966new6394
2021-05-03 18:02:30W3UANewEngQPSingle OpHP93,600new6397
2021-05-03 17:22:59W1PYNewEngQPSingle OpLP196,236new6397
2021-05-03 16:40:51AK1W(K5ZD)NewEngQPSingle OpHP365,742new6397
2021-05-03 15:49:32K1RONewEngQPSingle OpHP148,504new6397
2021-05-03 15:49:16WZ1VNewEngQPSingle OpHP21,518new6397
2021-05-03 15:46:55K1ROInQPSingle OpHP12,877new6395
2021-05-03 15:45:16K1RO7QPSO(A)MixedHP36,168new6394
2021-05-03 14:19:02K1KINewEngQPSingle OpHP453,592new6397
 
2021-05-03 14:03:11AC1EVNewEngQPSingle OpHP57,084new6397
2021-05-03 13:56:55K1XMInQPSingle OpLP700new6395
2021-05-03 13:52:15K1XMDeQPSingle OpLP960new6396
2021-05-03 13:41:49K1XM7QPSO(A)CWLP9,471new6394
2021-05-03 12:45:07K1WHSNewEngQPSingle OpLP26,300new6397
2021-05-03 12:29:33K1RXNewEngQPSingle OpHP125,625new6397
2021-05-03 11:29:37W1WEFNewEngQPSingle OpHP315,192new6397
2021-05-03 10:09:47K1DJInQPSingle OpHP850new6395
2021-05-03 10:06:00K1DJDeQPSingle OpHP180new6396
2021-05-03 10:04:35K1DJ7QPSO(A)CWHP7,371new6394
 
2021-05-03 02:25:39W1FJNewEngQPSingle OpHP127,050new6397
2021-05-03 01:45:36K1XMNewEngQPSingle OpLP270,600new6397
2021-05-03 01:29:32VA2EBINewEngQPSingle OpHP7,050new6397
2021-05-03 01:17:00W1GDNewEngQPSingle OpLP82,104new6397
2021-05-03 01:12:42N1RRInQPSingle OpHP72new6395
2021-05-03 01:10:18N1RR7QPSOMixedHP1,800new6394
2021-05-03 01:04:40N1RRNewEngQPSingle OpHP25,800new6397
2021-05-03 01:02:29K1ZZNewEngQPSingle OpHP447,618new6397
2021-05-03 00:53:30AE1TNewEngQPSingle OpHP39,240new6397
2021-05-03 00:29:11W1UE(@W1KBN)NewEngQPSingle OpLP86,184new6397
 
2021-05-03 00:19:10N1DCNewEngQPSingle OpLP113,900new6397
2021-05-03 00:12:25K1TRNewEngQPSingle OpLP196,160new6397
2021-05-03 00:11:26NC1CCNewEngQPM/SHP231,710new6397
 (KC1BXY,WA1BXY,@NC1CC)
2021-05-03 00:10:53WS1LNewEngQPSingle OpHP66,600new6397
2021-05-03 00:10:42AE1PNewEngQPSingle OpLP13,450new6397
2021-05-03 00:10:06KE1VTNewEngQPSingle OpHP183,833new6397
2021-05-03 00:09:05K1JBNewEngQPSingle OpHP232,484new6397
2021-05-03 00:05:26N1SNBNewEngQPSingle OpHP175,143new6397
2021-05-03 00:05:21WB2NVRNewEngQPSingle OpHP11,440new6397
2021-05-02 23:59:34W1EQNewEngQPSingle OpLP57,570new6397
 
2021-05-02 23:47:21W1RMNewEngQPSingle OpHP168,420new6397
2021-05-02 23:32:21N1E(K1IB)NewEngQPSO MobileLP52,032new6397
2021-05-02 21:20:21NE1RDNewEngQPSingle OpHP11,176new6397
2021-05-02 21:01:42K1ESE(@W1IMD)NewEngQPSingle OpHP105,627new6397
2021-04-30 21:25:32K1TWKRC SSTSingle OpHP216new6391
2021-04-30 03:10:55K8CNNCCC SprintSingle OpQRP682new6390
2021-04-30 03:06:25W1FJNCCC SprintSingle OpLP1,026new6390
2021-04-29 04:24:58W1QKCWopsTSingle OpLP8,989new6386
2021-04-29 04:14:58VA2EBICWopsTSingle OpHP1,444new6386
2021-04-29 04:04:37K1VUTCWopsTSingle OpLP8,554new6386
 
2021-04-29 04:04:19K2LECWopsTSingle OpHP17,000new6386
2021-04-29 04:02:31W1WEFCWopsTSingle OpHP19,536new6386
2021-04-29 03:31:14N1SNBCWopsTSingle OpHP961new6386
2021-04-29 03:19:50W1TOCWopsTSingle OpHP900new6386
2021-04-29 03:17:46K1DJCWopsTSingle OpQRP529new6386
2021-04-29 03:04:57KQ2MWPX SSBSOAB Classic UnassisHP6,803,343new6302
2021-04-29 02:33:58K1RVCWopsTSingle OpHP400new6385
2021-04-28 22:55:39K2LECWopsTSingle OpHP5,329new6385
2021-04-28 20:57:00K1EBY(SELFK1EB)CWopsTSingle OpHP15,376new6385
2021-04-28 20:32:00K1VUTCWopsTSingle OpLP7,395update6385
 
2021-04-28 20:07:50W1QKCWopsTSingle OpLP4,288new6385
2021-04-28 20:03:45N1DCCWopsTSingle OpLP5,329new6385
2021-04-28 20:02:54K1DJCWopsTSingle OpQRP3,422new6385
2021-04-28 20:02:08K1MT(@W1SRG)CWopsTSingle OpLP1,024new6385
2021-04-28 20:01:38WS1LCWopsTSingle OpHP5,929new6385
2021-04-28 20:01:37W1TOCWopsTSingle OpHP9,801new6385
2021-04-28 19:56:43VA2CZCWopsTSingle OpLP2,304new6385
2021-04-28 19:32:35W1WEFCWopsTSingle OpHP6,241new6385
2021-04-28 15:13:48K1RVCWopsTSingle OpHP5,698new6384
2021-04-28 14:33:09W1QKCWopsTSingle OpLP6,966new6384
 
2021-04-28 14:04:21K1VUTCWopsTSingle OpLP7,740new6384
2021-04-28 14:04:01N1DCCWopsTSingle OpLP5,184new6384
2021-04-28 14:03:07W1WEFCWopsTSingle OpHP27,507new6384
2021-04-28 14:02:47WS1LCWopsTSingle OpHP10,000new6384
2021-04-28 14:02:24K1DJCWopsTSingle OpQRP1,152new6384
2021-04-28 14:01:55K1ARCWopsTSingle OpHP25,600new6384
2021-04-28 14:01:51W1TOCWopsTSingle OpHP11,881new6384
2021-04-28 14:01:45K1EBY(SELFK1EBY)CWopsTSingle OpHP4,160new6384
2021-04-28 13:31:45K1ESE(@W1IMD)CWopsTSingle OpHP400new6384
2021-04-27 18:47:43W1WEFFlQPSOABCWHP38,458new6375
 
2021-04-26 23:52:33K1GQFlQPSOAB(A)CWHP30,686new6375
2021-04-26 23:25:30W1TOFlQPSOABCWHP33,902new6375
2021-04-26 16:09:04N1SOHFlQPM/SMixedHP17,568new6375
 (W1FM,@N1SOH)
2021-04-26 16:05:32NS1DXFlQPM/SMixedHP37,474new6375
 (K2LE,NS1DX,W1VE,K1EP)
2021-04-26 16:04:28N1SOHHelvetiaMulti-Op CWHP4,056new6373
 (W1FM,@N1SOH)
2021-04-26 15:29:19VA2EBIFlQPSOAB(A)MixedHP10,920new6375
2021-04-26 15:02:03W1FJFlQPSOABCWHP18,368new6375
2021-04-26 10:50:12W1ENDFlQPSOABCWLP27,040new6375
2021-04-26 04:09:53W1UE(@W1KM)UA1DZ MemCupSO CWHP4,622update6379
2021-04-26 01:10:59AB1JFlQPSOAB(A)CWLP21,156new6375
 
2021-04-26 01:09:27K1DJFlQPSOAB(A)CWHP12,838new6375
2021-04-26 00:46:27N9NCFlQPSOAB(A)CWHP27,260new6375
2021-04-26 00:11:19K1RQFlQPM/SMixedLP33,642new6375
 (NJ1F,@K1RQ)
2021-04-25 23:37:23K1EBYFlQPSOAB(A)CWHP17,420new6375
2021-04-25 22:31:31VX2Z(@VA2CZ)FlQPSOAB(A)MixedLP37,350new6375
2021-04-25 22:09:25WB2NVRFlQPSOAB(A)CWHP15,344new6375
2021-04-25 22:06:17N1DCFlQPSOABMixedLP14,352new6375
2021-04-25 22:04:27K1JBFlQPSOAB(A)MixedHP47,022new6375
2021-04-25 19:05:11K1ESEFlQPSOAB(A)CWHP5,372new6375
2021-04-25 17:29:14N1RRUA1DZ MemCupSO CWHP3,505new6379
 
2021-04-23 20:58:13W1MJKRC SSTSingle OpLP100new6371
2021-04-23 03:08:51K8CNNCCC SprintSingle OpQRP532new6370
2021-04-23 03:07:30W1FJNCCC SprintSingle OpLP900new6370
2021-04-22 17:35:17K1RVCWopsTSingle OpHP2,115new6366
2021-04-22 17:33:06K1RVCWopsTSingle OpHP1,296new6365
2021-04-22 14:36:59N1SOHOnQPM/SHP6,708new5642
 (W1FM,@N1SOH)
2021-04-22 14:34:42N1SOHMiQPM/SHP703new6357
 (W1FM,@N1SOH)
2021-04-22 14:32:10N1SOHCQMM DXSOABQRP1,177new6356
2021-04-22 14:30:30N1SOHYU DXM/SHP72new6355
 (W1FM,@N1SOH)
2021-04-22 14:28:18N1SOHHolyland DXM/SHP4new6352
 (W1FM,@N1SOH)
 
2021-04-22 11:58:58W1RMCWopsTSingle OpHP100new6365
2021-04-22 11:58:34W1RMCWopsTSingle OpHP196new6364
2021-04-22 04:10:02W1QKCWopsTSingle OpLP6,720new6366
2021-04-22 04:06:11K1VUTCWopsTSingle OpLP9,300new6366
2021-04-22 04:04:56W1WEFCWopsTSingle OpHP30,046new6366
2021-04-22 03:42:12K1DJCWopsTSingle OpQRP870new6366
2021-04-22 03:15:56W1TOCWopsTSingle OpHP324new6365
2021-04-22 03:13:44W1TOCWopsTSingle OpHP196new6366
2021-04-21 20:22:11W1QKCWopsTSingle OpLP6,162new6365
2021-04-21 20:06:57N1DCCWopsTSingle OpLP5,112new6365
 
2021-04-21 20:05:07K1VUTCWopsTSingle OpLP7,224new6365
2021-04-21 20:03:36K1DJCWopsTSingle OpQRP2,750new6365
2021-04-21 20:01:33K1IGCWopsTSingle OpLP1,024new6365
2021-04-21 19:29:38W1TOMiQPSingle OpHP1,440new6357
2021-04-21 19:18:26W1TOCQMM DXSOABHP28,755new6356
2021-04-21 19:12:17WS1LCWopsTSingle OpHP100new6365
2021-04-21 16:05:07K1RVCWopsTSingle OpHP840new6364
2021-04-21 15:03:01K1EBY(SELFK1EBY)CWopsTSingle OpHP3,025new6364
2021-04-21 14:21:28W1QKCWopsTSingle OpLP5,254new6364
2021-04-21 14:04:11K1VUTCWopsTSingle OpLP8,245new6364
 
2021-04-21 14:03:34WS1LCWopsTSingle OpHP9,025new6364
2021-04-21 14:02:44K1ARCWopsTSingle OpHP23,716new6364
2021-04-21 14:01:42W1TOCWopsTSingle OpHP8,190new6364
2021-04-21 13:43:36K1IGCWopsTSingle OpLP81new6364
2021-04-21 13:42:07K1DJCWopsTSingle OpQRP1,089new6364
2021-04-20 16:13:16WO1NMiQPSingle OpLP5,280update6357
2021-04-20 13:59:21WO1NCQMM DXSOABLP70,746new6356
2021-04-20 11:45:41AB1JCQMM DXSOABLP59,004new6356
2021-04-19 22:18:08NB1NCQMM DXSOABHP347,004new6356
2021-04-19 21:56:13W1RMCQMM DXSOABHP86,730new6356
 
2021-04-19 19:30:00KX1WOnQPSO MixedLP259new5642
2021-04-19 19:27:01KX1WMiQPSingle OpLP24new6357
2021-04-19 18:39:45W1ENDOnQPSO CWLP1,638new5642
2021-04-19 18:37:00W1ENDMiQPSingle OpLP798new6357
2021-04-19 15:53:30W1FJCQMM DXSOSB/20HP5,000new6356
2021-04-19 14:54:44AB1JOnQPSO CWLP4,092new5642
2021-04-19 06:25:13N2QVHolyland DXSO MixedHP242new6352
2021-04-19 06:02:05N2QVCQMM DXSOABHP163,125new6356
2021-04-19 02:53:56NU2QCQMM DXSOABLP8,365new6356
2021-04-19 02:41:55NJ1FCQMM DXSOABLP18,189new6356
 
2021-04-19 01:56:13WA2OAXCQMM DXSOABHP546,638new6356
2021-04-19 01:39:28K1XMHolyland DXSO CWLP242new6352
2021-04-19 01:20:48K1XMCQMM DXSOABLP660,156new6356
2021-04-19 01:15:45K1TWKRC SSTSingle OpQRP36new6358
2021-04-19 01:00:56VA2URCQMM DXSOABHP456,940new6356
2021-04-19 00:44:03AK1MDCQMM DXSOABHP62,926new6356
2021-04-19 00:11:23W1UE(@W1KM)CQMM DXSOABHP2,220,600new6356
2021-04-19 00:03:19K5ZDCQMM DXSOABHP1,319,500new6356
2021-04-18 23:51:50VX2Z(@VA2CZ)CQMM DXSOABLP179,477new6356
2021-04-18 20:59:36N1DCCQMM DXSOABLP3,938new6356
 
2021-04-18 20:50:37K1ESECQMM DXSOABHP3,132new6356
2021-04-18 18:14:05K1DJOnQPSO CWHP4,422new5642
2021-04-18 16:25:11K1ROMiQPM/SHP15,246update6357
 (@K1RO)
2021-04-18 15:54:46K1DJMiQPSingle OpHP1,488new6357
2021-04-18 12:32:58K1TRCQMM DXSOABLP12,644new6356
2021-04-18 03:49:44N1RRCQMM DXSOSB/40HP181,890new6356
2021-04-17 11:36:10K1RVCWopsTSingle OpHP5,037new6347
2021-04-16 05:13:20W1QKNMQPSingle OpLP768move6335
2021-04-16 03:05:53W1FJNCCC SprintSingle OpLP800new6350
2021-04-15 04:35:00W1QKCWopsTSingle OpLP7,290new6347
 
2021-04-15 04:06:02K1VUTCWopsTSingle OpLP10,388new6347
2021-04-15 04:03:54N1DCCWopsTSingle OpLP9,384new6347
2021-04-15 04:02:43W1WEFCWopsTSingle OpHP26,163new6347
2021-04-15 04:01:12W1TOCWopsTSingle OpHP7,654new